Regional Weather Roundup
Issued by NWS

Home | Current Version | Previous Version | Text Only | Print | Product List | Glossary On
Versions: 1 2 3 4 5 6 7 8 9 10 11 12 13 14 15 16 17 18 19 20 21 22 23 24 25 26 27 28 29 30 31 32 33 34 35 36 37 38 39 40 41 42 43 44 45 46 47 48 49 50
784
ASUS44 KLIX 310412
RWRLA
LOUISIANA WEATHER ROUNDUP
NATIONAL WEATHER SERVICE NEW ORLEANS LA
1100 PM CDT SAT JUL 30 2016

NOTE: "FAIR" INDICATES FEW OR NO CLOUDS BELOW 12,000 FEET WITH NO
      SIGNIFICANT WEATHER AND/OR OBSTRUCTIONS TO VISIBILITY.
      SKY/WX - SKY CONDITION AND SIGNIFICANT WEATHER.
      TMP - AIR TEMPERATURE.    DP   - DEWPOINT TEMPERATURE.
      RH  - RELATIVE HUMIDITY.  PRES - PRESSURE.
      HX  - HEAT INDEX.         WCI  - WIND CHILL INDEX.

*  THESE STATIONS ARE NOT NWS OR FAA STATIONS AND ARE NOT UNDER
   NWS QUALITY CONTROL.

LAZ040-048-061>063-065-066-069-310500-
SOUTHEAST LOUISIANA

CITY           SKY/WX    TMP DP  RH WIND       PRES   REMARKS
N.O. AUDUBON     N/A     84  78  83 MISG        N/A
N.O. INTL ARPT PTCLDY    85  75  72 SW6       30.03R
N.O. LAKEFRONT CLEAR     85  76  74 SW7       30.03S
N.O. DOWNTOWN* FAIR      86  77  74 S3        30.04R HX  97
RESERVE*       FAIR      80  78  93 CALM      30.04R
SLIDELL        CLEAR     79  77  94 CALM      30.03R
BATON ROUGE    CLEAR     79  75  87 NE5       30.04R
BOOTHVILLE     PTCLDY    84  77  79 W5        30.05R
BELLE CHASSE   CLEAR     79  77  94 CALM      30.03R
BOGALUSA*      FAIR      78  74  86 CALM      30.07R
GALLIANO*      CLEAR     74  74 100 CALM      30.03S
NEW ROADS*     FAIR      78  76  93 CALM      30.04R
GONZALES*      FAIR      79  78  96 CALM      30.03S
HAMMOND*       CLOUDY    77  72  83 CALM      30.04S
HOUMA*         CLEAR     78  77  96 CALM      30.03S
PORT FOURCHON* CLEAR     86  75  70 SW5       30.03F HX  95

$$

LAZ041-044-053-054-310500-
SOUTHWEST LOUISIANA

CITY           SKY/WX    TMP DP  RH WIND       PRES   REMARKS
LAKE CHARLES   CLEAR     81  77  88 CALM      30.01R
LAFAYETTE      CLEAR     81  78  91 CALM      30.03R
PATTERSON      CLEAR     79  77  94 CALM      30.04R
SALT POINT       N/A     85  75  72 VRB3      30.01R
NEW IBERIA     CLEAR     80  77  90 CALM      30.03R
CHENAULT AIRPK CLEAR     79  76  92 CALM      30.02R

$$

LAZ027-028-310500-
CENTRAL LOUISIANA

CITY           SKY/WX    TMP DP  RH WIND       PRES   REMARKS
FORT POLK      CLEAR     82  76  82 S5        30.01R
ALEXANDRIA INT CLEAR     80  76  87 SE5       30.00R
ALEXANDRIA     PTCLDY    78  78 100 CALM      30.02R

$$

LAZ001-002-310500-
NORTHWEST LOUISIANA

CITY           SKY/WX    TMP DP  RH WIND       PRES   REMARKS
SHREVEPORT     PTCLDY    78  74  87 E9        30.00R
BARKSDALE AFB  CLEAR     76  73  87 SE7       30.00R
DTN SHREVEPORT CLEAR     78  71  79 E7        30.00R

$$

LAZ014-016-310500-
NORTHEAST LOUISIANA

CITY           SKY/WX    TMP DP  RH WIND       PRES   REMARKS
MONROE         CLOUDY    73  73 100 SE6       30.03F
TALLULAH       TSTM      74  72  93 N13       30.08F

$$





USA.gov is the U.S. government's official web portal to all federal, state and local government web resources and services.